Showing default

COSMOS 1833, 17589

Orbit data source: Space-Track

COSMOS 1833, 17589 is a payload satellite owned by GRU (CIS) in LEO that was launched on Wed, 18 Mar 1987 UTC via a ZENIT-2 launch vehicle from the Tyuratam Missile And Space Complex (TTMTR). Payload-class satellites include a variety of spacecraft equipped with specific instruments for various scientific and technological missions. These include communications satellites like Starlink; space stations such as the ISS; scientific satellites like the Hubble; Earth observation satellites from companies like Planet Labs, Umbra, and HawkEye 360; GPS; miniature CubeSats for education and research; and military/defense satellites.

Loading next visibility...
Identifier
17589, 1987-027A
Orbit
LEO
Country
Flag of CISCIS
Related business
Manufacturer
Yuzhnoe
Mission
Defense Sigint
Bus & Motor
TSELINA-2, Unknown motor
Mass
3,250 kg wet, 3,250 kg dry
Launch date (UTC)
1987-03-18 (40 years ago)
Launch vehicle
ZENIT-2
Launch site
Tyuratam Missile And Space Complex (TTMTR)
Object type
Payload
Rocket body
Debris
Shape & HBR
Cyl + 2 Pan + 1 Ant, 11.4 m
Radar Cross Section
16.265 m², Large (>1 m²)

Expand to show TLE details & history
Last TLE update: 11 hours ago

TLE from 11 hours ago
0 COSMOS 1833
1 17589U 87027A   26264.02765037 -.00000295  00000-0 -13160-3 0  9996
2 17589  70.9150 275.4261 0026793 269.9575  89.8476 14.13045880 37917
Epoch: 2026-09-21T00:39Z
TLE epoch observation values (Epoch: 2026-09-21T00:39:48.991Z)
Latitude
-0.00002°
Longitude
-94.44141°
Altitude
851.36 km
Speed
7.427 km/s
True Right ascension
18h 21m 42s
True Declination
0° 00' 00"
Sunlit
Object was in daylight at epoch
Visualization orbit readout
Latitude
Unknown
Longitude
Unknown
Altitude
Unknown
Speed
Unknown
Apparent Right ascension
Unknown
Apparent Declination
Unknown
Sunlit
N/A
Visualization observer readout
Local Sidereal Time
04:58:46
Azimuth
Unknown
Elevation
Unknown
Doppler factor
Unknown
Orbital elements
Apogee altitude
866.261 km
Perigee altitude
827.545 km
Semi-major axis
7,225.04 km
Eccentricity
0.00268
Inclination
70.915°
RAAN
275.4261°
Arg. of periapsis
269.9575°
True anomaly
90.15463°
Mean anomaly
89.8476°
Eccentric anomaly
90.00111°
Mean motion
3.53413 °/min
Orbital period
101.86 mins
BSTAR
-0.0001316
Loading maneuver chart data...
Computing Atmospheric mass density...
Loading historical data...
Loading historical data...
Loading historical data...
Loading historical data...
Loading historical data...
Loading historical data...
Loading historical data...

Documentation

Showing up to 5 results
|